Time,TemperatureF,DewpointF,PressureIn,WindDirection,WindDirectionDegrees,WindSpeedMPH,WindSpeedGustMPH,Humidity,HourlyPrecipIn,Conditions,Clouds,dailyrainin,SolarRadiationWatts/m^2,SoftwareType,DateUTC
2013-09-29 00:02:00,-999.0,-99.9,-100.00,West,259,0.0,2.0,-999,-99.99,,,-99.99,0.000000,,2013-09-29 04:02:00,
2013-09-29 00:14:00,46.0,45.0,-100.00,West,259,0.0,2.0,98,0.00,,,0.00,0.000000,,2013-09-29 04:14:00,
2013-09-29 00:24:00,46.0,45.0,-100.00,West,259,0.0,2.0,98,0.00,,,0.00,0.000000,,2013-09-29 04:24:00,
2013-09-29 00:54:00,44.0,43.0,-100.00,SE,124,1.0,2.0,98,0.00,,,0.00,0.000000,,2013-09-29 04:54:00,
2013-09-29 01:03:00,44.0,43.0,-100.00,SE,124,1.0,2.0,98,0.00,,,0.00,0.000000,,2013-09-29 05:03:00,
2013-09-29 01:14:00,44.0,43.0,-100.00,SE,124,1.0,2.0,98,0.00,,,0.00,0.000000,,2013-09-29 05:14:00,
2013-09-29 01:22:00,44.0,43.0,-100.00,SE,124,1.0,2.0,98,0.00,,,0.00,0.000000,,2013-09-29 05:22:00,
2013-09-29 01:53:00,43.0,43.0,-100.00,SSE,161,2.0,3.0,99,0.00,,,0.00,0.000000,,2013-09-29 05:53:00,
2013-09-29 02:03:00,43.0,43.0,-100.00,SSE,161,2.0,3.0,99,0.00,,,0.00,0.000000,,2013-09-29 06:03:00,
2013-09-29 02:13:00,43.0,43.0,-100.00,SSE,161,2.0,3.0,99,0.00,,,0.00,0.000000,,2013-09-29 06:13:00,
2013-09-29 02:22:00,43.0,43.0,-100.00,SSE,161,2.0,3.0,99,0.00,,,0.00,0.000000,,2013-09-29 06:22:00,
2013-09-29 02:52:00,42.0,42.0,-100.00,SE,126,1.0,3.0,99,0.00,,,0.00,0.000000,,2013-09-29 06:52:00,
2013-09-29 03:02:00,42.0,42.0,-100.00,SE,126,1.0,3.0,99,0.00,,,0.00,0.000000,,2013-09-29 07:02:00,
2013-09-29 03:11:00,42.0,42.0,-100.00,SE,126,1.0,3.0,99,0.00,,,0.00,0.000000,,2013-09-29 07:11:00,
2013-09-29 03:22:00,42.0,42.0,-100.00,SE,126,1.0,3.0,99,0.00,,,0.00,0.000000,,2013-09-29 07:22:00,
2013-09-29 03:52:00,41.0,41.0,-100.00,ESE,117,0.0,2.0,99,0.00,,,0.00,0.000000,,2013-09-29 07:52:00,
2013-09-29 04:02:00,41.0,41.0,-100.00,ESE,117,0.0,2.0,99,0.00,,,0.00,0.000000,,2013-09-29 08:02:00,
2013-09-29 04:12:00,41.0,41.0,-100.00,ESE,117,0.0,2.0,99,0.00,,,0.00,0.000000,,2013-09-29 08:12:00,
2013-09-29 04:22:00,41.0,41.0,-100.00,ESE,117,0.0,2.0,99,0.00,,,0.00,0.000000,,2013-09-29 08:22:00,
2013-09-29 04:52:00,40.0,40.0,-100.00,SSW,209,0.0,2.0,99,0.01,,,0.01,0.000000,,2013-09-29 08:52:00,
2013-09-29 05:02:00,40.0,40.0,-100.00,SSW,209,0.0,2.0,99,0.01,,,0.01,0.000000,,2013-09-29 09:02:00,
2013-09-29 05:11:00,40.0,40.0,-100.00,SSW,209,0.0,2.0,99,0.01,,,0.01,0.000000,,2013-09-29 09:11:00,
2013-09-29 05:22:00,40.0,40.0,-100.00,SSW,209,0.0,2.0,99,0.01,,,0.01,0.000000,,2013-09-29 09:22:00,
2013-09-29 05:54:00,40.0,40.0,-100.00,SW,220,0.0,2.0,99,0.00,,,0.01,0.000000,,2013-09-29 09:54:00,
2013-09-29 06:03:00,40.0,40.0,-100.00,SW,220,0.0,2.0,99,0.00,,,0.01,0.000000,,2013-09-29 10:03:00,
2013-09-29 06:12:00,40.0,40.0,-100.00,SW,220,0.0,2.0,99,0.00,,,0.01,0.000000,,2013-09-29 10:12:00,
2013-09-29 06:23:00,40.0,40.0,-100.00,SW,220,0.0,2.0,99,0.00,,,0.01,0.000000,,2013-09-29 10:23:00,
2013-09-29 06:53:00,39.0,39.0,-100.00,East,88,0.0,2.0,99,0.00,,,0.01,0.000000,,2013-09-29 10:53:00,
2013-09-29 07:03:00,39.0,39.0,-100.00,East,88,0.0,2.0,99,0.00,,,0.01,0.000000,,2013-09-29 11:03:00,
2013-09-29 07:12:00,39.0,39.0,-100.00,East,88,0.0,2.0,99,0.00,,,0.01,0.000000,,2013-09-29 11:12:00,
2013-09-29 07:22:00,39.0,39.0,-100.00,East,88,0.0,2.0,99,0.00,,,0.01,0.000000,,2013-09-29 11:22:00,
2013-09-29 07:52:00,39.0,39.0,-100.00,ESE,116,0.0,2.0,99,0.00,,,0.01,6.000000,,2013-09-29 11:52:00,
2013-09-29 08:01:00,39.0,39.0,-100.00,ESE,116,0.0,2.0,99,0.00,,,0.01,6.000000,,2013-09-29 12:01:00,
2013-09-29 08:12:00,39.0,39.0,-100.00,ESE,116,0.0,2.0,99,0.00,,,0.01,6.000000,,2013-09-29 12:12:00,
2013-09-29 08:21:00,39.0,39.0,-100.00,ESE,116,0.0,2.0,99,0.00,,,0.01,6.000000,,2013-09-29 12:21:00,
2013-09-29 08:52:00,42.0,41.0,-100.00,NW,318,1.0,2.0,98,0.00,,,0.01,74.000000,,2013-09-29 12:52:00,
2013-09-29 09:02:00,42.0,41.0,-100.00,NW,318,1.0,2.0,98,0.00,,,0.01,74.000000,,2013-09-29 13:02:00,
2013-09-29 09:11:00,42.0,41.0,-100.00,NW,318,1.0,2.0,98,0.00,,,0.01,74.000000,,2013-09-29 13:11:00,
2013-09-29 09:22:00,42.0,41.0,-100.00,NW,318,1.0,2.0,98,0.00,,,0.01,74.000000,,2013-09-29 13:22:00,
2013-09-29 09:53:00,47.0,46.0,-100.00,NW,309,0.0,3.0,98,0.00,,,0.01,174.000000,,2013-09-29 13:53:00,
2013-09-29 10:02:00,47.0,46.0,-100.00,NW,309,0.0,3.0,98,0.00,,,0.01,174.000000,,2013-09-29 14:02:00,
2013-09-29 10:12:00,47.0,46.0,-100.00,NW,309,0.0,3.0,98,0.00,,,0.01,174.000000,,2013-09-29 14:12:00,
2013-09-29 10:22:00,47.0,46.0,-100.00,NW,309,0.0,3.0,98,0.00,,,0.01,174.000000,,2013-09-29 14:22:00,
2013-09-29 10:52:00,57.0,52.0,-100.00,West,264,1.0,3.0,84,0.00,,,0.01,418.000000,,2013-09-29 14:52:00,
2013-09-29 11:02:00,57.0,52.0,-100.00,West,264,1.0,3.0,84,0.00,,,0.01,418.000000,,2013-09-29 15:02:00,
2013-09-29 11:12:00,57.0,52.0,-100.00,West,264,1.0,3.0,84,0.00,,,0.01,418.000000,,2013-09-29 15:12:00,
2013-09-29 11:22:00,57.0,52.0,-100.00,West,264,1.0,3.0,84,0.00,,,0.01,418.000000,,2013-09-29 15:22:00,
2013-09-29 12:24:00,66.0,53.0,-100.00,NW,321,2.0,3.0,64,0.00,,,0.01,587.000000,,2013-09-29 16:24:00,
2013-09-29 13:13:00,72.0,51.0,-100.00,North,350,2.0,5.0,48,0.00,,,0.01,676.000000,,2013-09-29 17:13:00,
2013-09-29 13:24:00,72.0,51.0,-100.00,North,350,2.0,5.0,48,0.00,,,0.01,676.000000,,2013-09-29 17:24:00,
2013-09-29 13:52:00,73.0,44.0,-100.00,ESE,115,2.0,8.0,36,0.00,,,0.01,697.000000,,2013-09-29 17:52:00,
2013-09-29 14:02:00,73.0,44.0,-100.00,ESE,115,2.0,8.0,36,0.00,,,0.01,697.000000,,2013-09-29 18:02:00,
2013-09-29 14:13:00,73.0,44.0,-100.00,ESE,115,2.0,8.0,36,0.00,,,0.01,697.000000,,2013-09-29 18:13:00,
2013-09-29 14:22:00,73.0,44.0,-100.00,ESE,115,2.0,8.0,36,0.00,,,0.01,697.000000,,2013-09-29 18:22:00,
2013-09-29 14:52:00,74.0,49.0,-100.00,ESE,116,3.0,9.0,41,0.00,,,0.01,658.000000,,2013-09-29 18:52:00,
2013-09-29 15:02:00,74.0,49.0,-100.00,ESE,116,3.0,9.0,41,0.00,,,0.01,658.000000,,2013-09-29 19:02:00,
2013-09-29 15:12:00,74.0,49.0,-100.00,ESE,116,3.0,9.0,41,0.00,,,0.01,658.000000,,2013-09-29 19:12:00,
2013-09-29 15:22:00,74.0,49.0,-100.00,ESE,116,3.0,9.0,41,0.00,,,0.01,658.000000,,2013-09-29 19:22:00,
2013-09-29 15:52:00,74.0,48.0,-100.00,ESE,123,4.0,9.0,40,0.00,,,0.01,567.000000,,2013-09-29 19:52:00,
2013-09-29 16:02:00,74.0,48.0,-100.00,ESE,123,4.0,9.0,40,0.00,,,0.01,567.000000,,2013-09-29 20:02:00,
2013-09-29 16:12:00,74.0,48.0,-100.00,ESE,123,4.0,9.0,40,0.00,,,0.01,567.000000,,2013-09-29 20:12:00,
2013-09-29 16:22:00,74.0,48.0,-100.00,ESE,123,4.0,9.0,40,0.00,,,0.01,567.000000,,2013-09-29 20:22:00,
2013-09-29 16:52:00,74.0,49.0,-100.00,SE,125,3.0,9.0,41,0.00,,,0.01,431.000000,,2013-09-29 20:52:00,
2013-09-29 17:02:00,74.0,49.0,-100.00,SE,125,3.0,9.0,41,0.00,,,0.01,431.000000,,2013-09-29 21:02:00,
2013-09-29 17:12:00,74.0,49.0,-100.00,SE,125,3.0,9.0,41,0.00,,,0.01,431.000000,,2013-09-29 21:12:00,
2013-09-29 17:22:00,74.0,49.0,-100.00,SE,125,3.0,9.0,41,0.00,,,0.01,431.000000,,2013-09-29 21:22:00,
2013-09-29 17:55:00,68.0,51.0,-100.00,SE,126,2.0,7.0,54,0.00,,,-99.99,237.000000,,2013-09-29 21:55:00,
2013-09-29 18:04:00,68.0,51.0,-100.00,SE,126,2.0,7.0,54,0.00,,,-99.99,237.000000,,2013-09-29 22:04:00,
2013-09-29 18:14:00,68.0,51.0,-100.00,SE,126,2.0,7.0,54,0.00,,,-99.99,237.000000,,2013-09-29 22:14:00,
2013-09-29 18:24:00,68.0,51.0,-100.00,SE,126,2.0,7.0,54,0.00,,,-99.99,237.000000,,2013-09-29 22:24:00,
2013-09-29 19:23:00,58.0,52.0,-100.00,SE,124,3.0,4.0,81,0.00,,,0.01,17.000000,,2013-09-29 23:23:00,
2013-09-29 19:53:00,54.0,51.0,-100.00,ESE,122,2.0,4.0,91,0.00,,,0.01,1.000000,,2013-09-29 23:53:00,
2013-09-29 20:02:00,54.0,51.0,-100.00,ESE,122,2.0,4.0,91,0.00,,,0.01,1.000000,,2013-09-30 00:02:00,
2013-09-29 20:12:00,54.0,51.0,-100.00,ESE,122,2.0,4.0,91,0.00,,,0.01,1.000000,,2013-09-30 00:12:00,
2013-09-29 20:22:00,54.0,51.0,-100.00,ESE,122,2.0,4.0,91,0.00,,,0.01,1.000000,,2013-09-30 00:22:00,
2013-09-29 20:52:00,52.0,50.0,-100.00,SSE,163,1.0,4.0,94,0.00,,,0.01,0.000000,,2013-09-30 00:52:00,
2013-09-29 21:02:00,52.0,50.0,-100.00,SSE,163,1.0,4.0,94,0.00,,,0.01,0.000000,,2013-09-30 01:02:00,
2013-09-29 21:12:00,52.0,50.0,-100.00,SSE,163,1.0,4.0,94,0.00,,,0.01,0.000000,,2013-09-30 01:12:00,
2013-09-29 21:22:00,52.0,50.0,-100.00,SSE,163,1.0,4.0,94,0.00,,,0.01,0.000000,,2013-09-30 01:22:00,
2013-09-29 21:52:00,50.0,49.0,-100.00,SW,226,1.0,3.0,97,0.00,,,0.01,0.000000,,2013-09-30 01:52:00,
2013-09-29 22:02:00,50.0,49.0,-100.00,SW,226,1.0,3.0,97,0.00,,,0.01,0.000000,,2013-09-30 02:02:00,
2013-09-29 22:12:00,50.0,49.0,-100.00,SW,226,1.0,3.0,97,0.00,,,0.01,0.000000,,2013-09-30 02:12:00,
2013-09-29 22:22:00,50.0,49.0,-100.00,SW,226,1.0,3.0,97,0.00,,,0.01,0.000000,,2013-09-30 02:22:00,
2013-09-29 22:52:00,48.0,47.0,-100.00,SSE,152,1.0,2.0,98,0.00,,,0.01,0.000000,,2013-09-30 02:52:00,
2013-09-29 23:02:00,48.0,47.0,-100.00,SSE,152,1.0,2.0,98,0.00,,,0.01,0.000000,,2013-09-30 03:02:00,
2013-09-29 23:12:00,48.0,47.0,-100.00,SSE,152,1.0,2.0,98,0.00,,,0.01,0.000000,,2013-09-30 03:12:00,
2013-09-29 23:22:00,48.0,47.0,-100.00,SSE,152,1.0,2.0,98,0.00,,,0.01,0.000000,,2013-09-30 03:22:00,
2013-09-29 23:25:00,47.0,46.0,-100.00,WSW,237,2.0,3.0,98,0.00,,,0.01,0.000000,,2013-09-30 03:25:00,
2013-09-29 23:55:00,47.0,46.0,-100.00,WSW,237,2.0,3.0,98,0.00,,,0.01,0.000000,,2013-09-30 03:55:00,